This is the latest recevied weather packets stored in our database for station/object K5FEP. If no packets are shown the sender has not sent any weather packets the latest 10 day(s).
| Time | Temp. | Humidity | Pressure | Rain* | Wind** | Luminosity | Snow |
|---|---|---|---|---|---|---|---|
| 1777940542 | 19.44° C | 50% | 1012 hPa | 0 mm | - | 0 W/m² | - |
| 1777940240 | 20° C | 50% | 1011.9 hPa | 0 mm | - | 1 W/m² | - |
| 1777939937 | 20° C | 49% | 1011.9 hPa | 0 mm | - | 2 W/m² | - |
| 1777939634 | 20.56° C | 47% | 1011.9 hPa | 0 mm | - | 3 W/m² | - |
| 1777939332 | 21.11° C | 46% | 1011.8 hPa | 0 mm | - | 5 W/m² | - |
| 1777939028 | 21.11° C | 45% | 1011.8 hPa | 0 mm | - | 8 W/m² | - |
| 1777938724 | 21.67° C | 44% | 1011.8 hPa | 0 mm | - | 11 W/m² | - |
| 1777938422 | 21.67° C | 43% | 1011.7 hPa | 0 mm | - | 15 W/m² | - |
| 1777938119 | 22.22° C | 43% | 1011.7 hPa | 0 mm | - | 19 W/m² | - |
| 1777937815 | 22.78° C | 41% | 1011.5 hPa | 0 mm | - | 27 W/m² | - |
| 1777937511 | 23.33° C | 40% | 1011.3 hPa | 0 mm | - | 29 W/m² | - |
| 1777937209 | 23.33° C | 39% | 1011.6 hPa | 0 mm | - | 27 W/m² | - |
| 1777936905 | 23.89° C | 37% | 1011.7 hPa | 0 mm | - | 30 W/m² | - |
| 1777936602 | 24.44° C | 35% | 1011.3 hPa | 0 mm | - | 35 W/m² | - |
| 1777936298 | 24.44° C | 34% | 1011.4 hPa | 0 mm | - | 44 W/m² | - |
| 1777935995 | 25° C | 34% | 1011.4 hPa | 0 mm | - | 50 W/m² | - |
| 1777935693 | 25° C | 34% | 1011.5 hPa | 0 mm | - | 57 W/m² | - |
| 1777935392 | 25° C | 33% | 1011.5 hPa | 0 mm | - | 65 W/m² | - |
| 1777935087 | 25.56° C | 33% | 1011.5 hPa | 0 mm | - | 90 W/m² | - |
| 1777934784 | 25.56° C | 33% | 1011.6 hPa | 0 mm | - | 114 W/m² | - |
| 1777934481 | 25.56° C | 34% | 1011.7 hPa | 0 mm | - | 166 W/m² | - |
| 1777934178 | 25.56° C | 33% | 1011.6 hPa | 0 mm | - | 215 W/m² | - |
| 1777933874 | 25° C | 34% | 1011.7 hPa | 0 mm | - | 251 W/m² | - |
| 1777933571 | 25° C | 35% | 1011.7 hPa | 0 mm | - | 187 W/m² | - |
| 1777933268 | 24.44° C | 34% | 1011.6 hPa | 0 mm | - | 137 W/m² | - |
* Rain latest hour (hover to see other rain measurements)
** Current wind speed in m/s (hover to see current wind gust speed)